| time (UTC) | temp F | wind direction | speed MPH | gust MPH | rain 1hr in | rain 24hr in | rain mn in | humidity % | barometer mb |
| 20260904014508 | 56 | 49 | 8.0 | 14.0 | 0.14 | 0.17 | 0.15 | 91 | 1013.7 |
| 20260904013005 | 58 | 20 | 4.0 | 7.0 | 0.03 | 0.06 | 0.04 | 85 | 1015.0 |
| 20260904011509 | 58 | 62 | 4.0 | 11.0 | 0.01 | 0.04 | 0.02 | 86 | 1014.6 |
| 20260904010006 | 58 | 59 | 6.0 | 12.0 | 0.01 | 0.04 | 0.02 | 86 | 1014.5 |
| 20260904004503 | 58 | 26 | 9.0 | 13.0 | 0.00 | 0.03 | 0.01 | 84 | 1015.3 |
| 20260904003047 | 58 | 7 | 10.0 | 14.0 | 0.01 | 0.03 | 0.01 | 83 | 1015.9 |
| 20260904001551 | 58 | 29 | 11.0 | 17.0 | 0.01 | 0.03 | 0.01 | 84 | 1015.9 |
| 20260904000045 | 58 | 27 | 13.0 | 18.0 | 0.01 | 0.03 | 0.01 | 84 | 1015.6 |
| 20260903234544 | 58 | 36 | 11.0 | 17.0 | 0.01 | 0.03 | 0.01 | 84 | 1015.5 |
| 20260903233043 | 58 | 95 | 11.0 | 17.0 | 0.00 | 0.02 | 0.00 | 83 | 1015.4 |
| 20260903231543 | 58 | 36 | 10.0 | 15.0 | 0.00 | 0.02 | 0.00 | 83 | 1015.7 |
| 20260903230040 | 57 | 26 | 12.0 | 17.0 | 0.00 | 0.02 | 0.00 | 84 | 1015.7 |
| 20260903224539 | 56 | 60 | 9.0 | 16.0 | 0.00 | 0.02 | 0.00 | 86 | 1015.7 |
| 20260903223048 | 56 | 66 | 8.0 | 14.0 | 0.00 | 0.02 | 0.00 | 86 | 1015.6 |
| 20260903221537 | 55 | 38 | 5.0 | 14.0 | 0.00 | 0.02 | 0.00 | 87 | 1015.6 |
| 20260903220053 | 55 | 45 | 9.0 | 14.0 | 0.00 | 0.02 | 0.00 | 87 | 1015.7 |
| 20260903214535 | 54 | 31 | 5.0 | 14.0 | 0.00 | 0.02 | 0.00 | 88 | 1015.4 |
| 20260903213036 | 54 | 29 | 6.0 | 10.0 | 0.00 | 0.02 | 0.00 | 88 | 1015.4 |
| 20260903211536 | 54 | 58 | 6.0 | 10.0 | 0.00 | 0.02 | 0.00 | 89 | 1015.3 |
| 20260903210035 | 54 | 83 | 6.0 | 11.0 | 0.00 | 0.02 | 0.00 | 88 | 1015.2 |
| 20260903204530 | 54 | 45 | 4.0 | 12.0 | 0.00 | 0.02 | 0.00 | 89 | 1015.3 |
| 20260903203029 | 53 | 81 | 5.0 | 11.0 | 0.00 | 0.02 | 0.00 | 89 | 1015.3 |
| 20260903201526 | 53 | 33 | 7.0 | 11.0 | 0.00 | 0.02 | 0.00 | 90 | 1015.8 |
| 20260903200013 | 52 | 29 | 6.0 | 11.0 | 0.00 | 0.02 | 0.00 | 90 | 1016.0 |
| 20260903194511 | 52 | 29 | 5.0 | 11.0 | 0.00 | 0.02 | 0.00 | 91 | 1015.9 |
| 20260903193011 | 52 | 45 | 6.0 | 12.0 | 0.00 | 0.02 | 0.00 | 91 | 1016.2 |
| 20260903191508 | 52 | 56 | 8.0 | 12.0 | 0.00 | 0.02 | 0.00 | 91 | 1016.6 |
| 20260903190004 | 52 | 40 | 6.0 | 11.0 | 0.00 | 0.02 | 0.00 | 91 | 1016.6 |
| 20260903184502 | 52 | 37 | 5.0 | 9.0 | 0.00 | 0.02 | 0.00 | 92 | 1016.4 |
| 20260903183059 | 51 | 56 | 2.0 | 7.0 | 0.00 | 0.02 | 0.00 | 92 | 1016.4 |
| 20260903181558 | 51 | 27 | 1.0 | 7.0 | 0.00 | 0.02 | 0.00 | 92 | 1016.3 |
| 20260903180038 | 51 | 42 | 0.0 | 5.0 | 0.00 | 0.02 | 0.00 | 92 | 1017.0 |
| 20260903174534 | 52 | 45 | 4.0 | 6.0 | 0.00 | 0.02 | 0.00 | 92 | 1017.4 |
| 20260903173024 | 52 | 37 | 1.0 | 4.0 | 0.00 | 0.02 | 0.00 | 91 | 1017.5 |
| 20260903171513 | 52 | 55 | 1.0 | 3.0 | 0.00 | 0.02 | 0.00 | 91 | 1017.8 |
| 20260903170009 | 53 | 39 | 4.0 | 6.0 | 0.00 | 0.02 | 0.00 | 91 | 1018.2 |
| 20260903164506 | 54 | 42 | 3.0 | 5.0 | 0.00 | 0.02 | 0.00 | 91 | 1018.3 |
| 20260903163006 | 54 | 42 | 1.0 | 2.0 | 0.00 | 0.02 | 0.00 | 91 | 1018.3 |
| 20260903161503 | 54 | 35 | 1.0 | 2.0 | 0.00 | 0.02 | 0.00 | 90 | 1018.6 |
| 20260903160002 | 54 | 39 | 1.0 | 2.0 | 0.00 | 0.02 | 0.00 | 90 | 1018.5 |
| 20260903154502 | 54 | 76 | 1.0 | 3.0 | 0.00 | 0.02 | 0.00 | 90 | 1018.3 |
| 20260903153035 | 54 | 88 | 3.0 | 5.0 | 0.00 | 0.02 | 0.00 | 90 | 1018.4 |
| 20260903151535 | 55 | 90 | 1.0 | 3.0 | 0.00 | 0.02 | 0.00 | 89 | 1018.6 |
| 20260903150043 | 55 | 43 | 0.0 | 1.0 | 0.00 | 0.02 | 0.00 | 89 | 1018.9 |
| 20260903144535 | 55 | 34 | 0.0 | 1.0 | 0.00 | 0.02 | 0.00 | 89 | 1019.1 |
| 20260903143037 | 55 | 34 | 0.0 | 2.0 | 0.00 | 0.02 | 0.00 | 88 | 1019.4 |
| 20260903141533 | 55 | 10 | 2.0 | 3.0 | 0.00 | 0.02 | 0.00 | 87 | 1019.5 |
| 20260903140023 | 55 | 34 | 0.0 | 1.0 | 0.00 | 0.02 | 0.00 | 86 | 1019.6 |
| 20260903134536 | 55 | 34 | 0.0 | 2.0 | 0.00 | 0.02 | 0.00 | 86 | 1019.8 |
| 20260903133015 | 55 | 35 | 1.0 | 2.0 | 0.00 | 0.02 | 0.00 | 85 | 1019.9 |
| 20260903131513 | 56 | 30 | 1.0 | 2.0 | 0.00 | 0.02 | 0.00 | 85 | 1020.1 |
| 20260903130011 | 56 | 49 | 1.0 | 2.0 | 0.00 | 0.02 | 0.00 | 84 | 1020.1 |
| 20260903124509 | 56 | 92 | 0.0 | 1.0 | 0.00 | 0.02 | 0.00 | 83 | 1020.3 |
| 20260903123015 | 56 | 92 | 0.0 | 2.0 | 0.00 | 0.02 | 0.00 | 81 | 1020.3 |
| 20260903121508 | 57 | 122 | 0.0 | 0.0 | 0.00 | 0.02 | 0.00 | 82 | 1020.4 |
| 20260903120054 | 57 | 122 | 0.0 | 0.0 | 0.00 | 0.02 | 0.00 | 80 | 1020.5 |
| 20260903114552 | 57 | 122 | 1.0 | 3.0 | 0.00 | 0.02 | 0.00 | 81 | 1020.4 |
| 20260903113051 | 57 | 171 | 1.0 | 2.0 | 0.00 | 0.02 | 0.00 | 81 | 1020.5 |
| 20260903111549 | 57 | 171 | 2.0 | 4.0 | 0.00 | 0.02 | 0.00 | 80 | 1020.4 |
| 20260903110044 | 57 | 159 | 1.0 | 3.0 | 0.00 | 0.02 | 0.02 | 80 | 1020.2 |
| 20260903104549 | 57 | 159 | 1.0 | 2.0 | 0.00 | 0.02 | 0.02 | 80 | 1020.0 |
| 20260903103042 | 57 | 159 | 0.0 | 1.0 | 0.00 | 0.02 | 0.02 | 78 | 1019.9 |
| 20260903101540 | 57 | 159 | 0.0 | 2.0 | 0.00 | 0.02 | 0.02 | 77 | 1019.7 |
| 20260903100025 | 57 | 159 | 1.0 | 2.0 | 0.00 | 0.02 | 0.02 | 76 | 1019.5 |
| 20260903094524 | 57 | 159 | 1.0 | 2.0 | 0.00 | 0.02 | 0.02 | 78 | 1019.5 |
| 20260903093029 | 57 | 159 | 2.0 | 5.0 | 0.00 | 0.02 | 0.02 | 77 | 1019.4 |
| 20260903091521 | 57 | 180 | 3.0 | 4.0 | 0.00 | 0.02 | 0.02 | 76 | 1019.2 |
| 20260903090020 | 58 | 185 | 2.0 | 3.0 | 0.00 | 0.02 | 0.02 | 77 | 1019.1 |
| 20260903084519 | 58 | 219 | 2.0 | 3.0 | 0.00 | 0.02 | 0.02 | 77 | 1019.0 |
| 20260903083016 | 58 | 206 | 2.0 | 4.0 | 0.00 | 0.02 | 0.02 | 76 | 1018.9 |
| 20260903081535 | 58 | 198 | 1.0 | 4.0 | 0.00 | 0.02 | 0.02 | 74 | 1018.8 |
| 20260903080001 | 58 | 205 | 1.0 | 5.0 | 0.00 | 0.02 | 0.02 | 74 | 1018.7 |
| 20260903074600 | 58 | 218 | 2.0 | 5.0 | 0.00 | 0.02 | 0.02 | 75 | 1018.6 |
| 20260903074500 | 58 | 218 | 3.0 | 5.0 | 0.00 | 0.02 | 0.02 | 75 | 1018.6 |
| 20260903073103 | 59 | 239 | 1.0 | 4.0 | 0.00 | 0.02 | 0.02 | 78 | 1018.5 |
| 20260903071602 | 59 | 244 | 3.0 | 7.0 | 0.00 | 0.02 | 0.02 | 80 | 1018.4 |
| 20260903070058 | 59 | 227 | 3.0 | 7.0 | 0.00 | 0.02 | 0.02 | 80 | 1018.4 |
| 20260903064556 | 59 | 233 | 2.0 | 7.0 | 0.00 | 0.02 | 0.02 | 80 | 1018.3 |
| 20260903063056 | 59 | 220 | 2.0 | 7.0 | 0.00 | 0.02 | 0.02 | 80 | 1018.2 |
| 20260903061603 | 59 | 244 | 3.0 | 6.0 | 0.00 | 0.02 | 0.02 | 78 | 1018.3 |
| 20260903060038 | 59 | 235 | 2.0 | 7.0 | 0.00 | 0.02 | 0.02 | 80 | 1018.3 |
| 20260903054536 | 59 | 228 | 5.0 | 9.0 | 0.00 | 0.02 | 0.02 | 79 | 1018.3 |
| 20260903053036 | 59 | 218 | 5.0 | 10.0 | 0.00 | 0.02 | 0.02 | 77 | 1018.2 |
| 20260903051533 | 60 | 244 | 4.0 | 7.0 | 0.00 | 0.02 | 0.02 | 79 | 1018.2 |
| 20260903050030 | 59 | 253 | 4.0 | 6.0 | 0.00 | 0.02 | 0.02 | 79 | 1018.2 |
| 20260903044530 | 59 | 257 | 4.0 | 9.0 | 0.00 | 0.02 | 0.02 | 80 | 1017.9 |
| 20260903043028 | 59 | 240 | 6.0 | 10.0 | 0.00 | 0.02 | 0.02 | 81 | 1018.0 |
| 20260903041533 | 59 | 239 | 5.0 | 9.0 | 0.00 | 0.02 | 0.02 | 85 | 1017.8 |
| 20260903040028 | 60 | 277 | 6.0 | 11.0 | 0.00 | 0.02 | 0.02 | 82 | 1017.8 |
| 20260903034509 | 60 | 313 | 6.0 | 12.0 | 0.00 | 0.02 | 0.02 | 82 | 1017.8 |
| 20260903033008 | 60 | 249 | 6.0 | 12.0 | 0.00 | 0.02 | 0.02 | 83 | 1017.8 |
| 20260903031521 | 60 | 245 | 7.0 | 12.0 | 0.00 | 0.02 | 0.02 | 85 | 1017.9 |
| 20260903030006 | 60 | 265 | 8.0 | 12.0 | 0.00 | 0.02 | 0.02 | 84 | 1017.9 |
| 20260903024504 | 59 | 256 | 6.0 | 11.0 | 0.01 | 0.02 | 0.02 | 88 | 1018.0 |
| 20260903023002 | 59 | 235 | 7.0 | 11.0 | 0.02 | 0.02 | 0.02 | 89 | 1018.1 |
| 20260903021503 | 58 | 227 | 7.0 | 12.0 | 0.02 | 0.02 | 0.02 | 91 | 1018.1 |
| 20260903020107 | 57 | 258 | 6.0 | 11.0 | 0.02 | 0.02 | 0.02 | 93 | 1018.2 |